Find Starlink 32686

NORAD ID: 62192 Int'l Des: 2024-229 Owner: SPXS Country: US Constellation: starlink operational
LEOCIRCULAR

現在のビュー

3D地球を読み込み中...

About Starlink 32686

Starlink 32686 (NORAD 62192) is a starlink constellation satellite (v2 mini) launched Dec 4, 2024 by SPXS of US. It operates in LEO, CIRCULAR orbit with a mass of 730.00 kg.

Starlink 32686について

説明を読み込み中...

次回通過

Passes for default location (London). Set your location on the main map for personalized predictions.

高度履歴

Loading altitude history...

軌道要素

1 62192U 24229A 26190.63740830 .00020075 00000-0 73637-3 0 9991
2 62192 43.0032 298.4048 0001969 277.5590 82.5038 15.27609833 89253
Epoch: Jul 9, 2026 • Age: 26 hours

現在のステータス

高度 484.7 km
遠地点 / 近地点 N/A
速度 7.63 km/s
衛星直下点 30.51°N, 109.91°W
打ち上げ日 Dec 4, 2024
運用期間 1.5 years
タイプ internet

技術仕様

分類 Payload
質量 730.00 kg
乾燥質量 700.00 kg
総質量 730.00 kg
長さ 0.30 m
直径 4.10 m
スパン 29.00 m
形状 Box + pan
製造者 SPXS
バスタイプ Starlink V2M
フェーズステータス In Orbit
所有者/国 SPXS/US

Most Searched